Flag for Poland Weather past 2 weeks in Rybnik, Poland

Now
90 °F

Passing clouds.


Feels Like: 87 °F
Forecast: 65 / 91 °F
Wind: 8 mph from North

Location: Katowice Airport

Current Time: Jul 5, 2015 at 5:33:17 PM

Latest Report: Jul 5, 2015 at 5:00 PM


Visibility: N/A

Pressure: 30.04 "Hg

Humidity: 27%

Dew point: 52 °F

Location of RybnikLocation

Historic Weather in Rybnik — Graph

°F

Rybnik temperature yesterday

Maximum temperature yesterday: 88 °F (at 2:30 PM)
Minimum temperature yesterday: 54 °F (at 4:30 AM)
Average temperature yesterday: 74 °F

Past Weeks' High & Low Weather Summary

 TemperatureHumidityPressure
High91 °F (Jul 5, 2:30 PM)100% (Jun 20, 10:00 PM)30.39 "Hg (Jun 20, 10:00 PM)
Low43 °F (Jun 25, 3:30 AM)28% (Jul 5, 4:00 PM)29.74 "Hg (Jun 23, 3:30 AM)
Average62 °F72%30.11 "Hg
* Reported Jun 20 4:00 PM — Jul 5 4:30 PM, Rybnik, Weather by CustomWeather, © 2015

Note: Actual official high and low records may vary slightly from our data, if they occured in-between our weather recording intervals... More about our weather records

Advertising

Rybnik weather history for previous 24 hours

 ConditionsComfort  
Time TempWeatherWind HumidityBarometerVisibility
4:30 PM
Sun, Jul 5
91 °FSunny.7 mph28%30.04 "Hg10 mi
4:00 PM91 °FSunny.3 mph28%30.04 "Hg10 mi
3:30 PM91 °FPassing clouds.5 mph30%30.04 "HgN/A
3:00 PM90 °FSunny.3 mph29%30.07 "Hg10 mi
2:30 PM91 °FSunny.5 mph30%30.07 "Hg10 mi
2:00 PM90 °FPassing clouds.6 mph29%30.07 "HgN/A
1:30 PM90 °FSunny.5 mph33%30.07 "Hg10 mi
1:00 PM90 °FPassing clouds.5 mph31%30.07 "HgN/A
12:30 PM88 °FPassing clouds.5 mph33%30.09 "HgN/A
12:00 PM88 °FPassing clouds.6 mph33%30.09 "HgN/A
11:30 AM88 °FPassing clouds.3 mph33%30.09 "HgN/A
11:00 AM86 °FSunny.3 mph38%30.09 "Hg10 mi
10:30 AM84 °FSunny.2 mph45%30.09 "Hg10 mi
10:00 AM82 °FSunny.2 mph48%30.09 "Hg10 mi
9:30 AM79 °FPassing clouds.3 mph51%30.09 "HgN/A
9:00 AM77 °FPassing clouds.5 mph54%30.09 "HgN/A
8:30 AM77 °FSunny.5 mph54%30.09 "Hg10 mi
8:00 AM75 °FPassing clouds.6 mph54%30.12 "HgN/A
7:30 AM75 °FSunny.1 mph57%30.12 "Hg10 mi
7:00 AM72 °FSunny.2 mph61%30.12 "Hg10 mi
6:30 AM68 °FSunny.3 mph73%30.12 "Hg10 mi
5:30 AM61 °FClear.5 mph88%30.12 "Hg10 mi
5:00 AM61 °FClear.3 mph88%30.12 "Hg10 mi
4:30 AM61 °FClear.5 mph88%30.12 "Hg10 mi
4:00 AM63 °FClear.5 mph83%30.12 "Hg10 mi
3:30 AM64 °FPassing clouds.3 mph73%30.12 "HgN/A
3:00 AM68 °FClear.5 mph69%30.12 "Hg10 mi
2:30 AM66 °FClear.5 mph73%30.12 "Hg10 mi
2:00 AM66 °FClear.5 mph73%30.12 "Hg10 mi
1:30 AM66 °FPassing clouds.3 mph73%30.12 "HgN/A
1:00 AM66 °FClear.5 mph73%30.12 "Hg10 mi
12:30 AM68 °FClear.3 mph69%30.12 "Hg10 mi
12:00 AM72 °FClear.6 mph61%30.15 "Hg10 mi
11:30 PM
Sat, Jul 4
68 °FPassing clouds.3 mph69%30.15 "HgN/A
11:00 PM66 °FClear.5 mph78%30.15 "Hg10 mi
10:30 PM72 °FClear.2 mph61%30.15 "Hg10 mi
10:00 PM75 °FPassing clouds.3 mph54%30.15 "HgN/A
9:30 PM73 °FSunny.9 mph61%30.15 "Hg10 mi
9:00 PM77 °FSunny.2 mph51%30.15 "Hg10 mi
8:30 PM82 °FSunny.5 mph42%30.12 "Hg10 mi
8:00 PM84 °FSunny.6 mph37%30.15 "Hg10 mi
7:30 PM86 °FSunny.7 mph33%30.15 "Hg10 mi
7:00 PM88 °FSunny.5 mph31%30.15 "Hg10 mi
6:30 PM88 °FSunny.5 mph31%30.15 "Hg10 mi
6:00 PM88 °FPassing clouds.9 mph33%30.15 "HgN/A
5:30 PM88 °FPassing clouds.5 mph29%30.15 "HgN/A
5:00 PM88 °FSunny.6 mph31%30.18 "Hg10 mi
Weather by CustomWeather, © 2015

See weather overviewHow to use our weather pages